Weather History for Glencoe, MN

Change the Weather History Date:

Wednesday, October 16, 2013

  Actual Average (KHCD) Record (KHCD)
Temperature  
Mean Temperature 46 °F -  
Max Temperature 54 °F 57 °F 82 °F (1961)
Min Temperature 38 °F 34 °F 1 °F (2004)
Degree Days  
Heating Degree Days 18    
Moisture  
Dew Point 37 °F    
Average Humidity 71    
Maximum Humidity 88    
Minimum Humidity 41    
Precipitation  
Precipitation 0.01 in - - ()
Sea Level Pressure  
Sea Level Pressure 29.92 in    
Wind  
Wind Speed 9 mph (WNW)    
Max Wind Speed 14 mph    
Max Gust Speed 20 mph    
Visibility 9 miles    
Events      
Averages and records for this station are not official NWS values.
T = Trace of Precipitation, MM = Missing Value Source: NWS Daily Summary

Daily Weather History Graph

Daily Weather History Graph

Search for Another Location

Airport:

Trip Planner

Search our weather history database for the weather conditions in past years. The results will help you decide how hot, cold, wet, or windy it might be!

Date:

Astronomy

Oct. 16, 2013 Rise Set
Actual Time 7:33 AM CDT 6:29 PM CDT
Civil Twilight 7:03 AM CDT 6:59 PM CDT
Nautical Twilight 6:29 AM CDT 7:32 PM CDT
Astronomical Twilight 5:56 AM CDT 8:06 PM CDT
Moon 5:13 PM CDT (10/16) 4:56 AM CDT (10/16)
Length of Visible Light 11h 55m
Length of Day
10h 56m
Waxing Gibbous, 94% of the Moon is Illuminated
Oct 16
Waxing Gibbous
Oct 18
Full
Oct 26
Last Quarter
Nov 3
New
Nov 9
First Quarter

Hourly Weather History & Observations

Time (CDT) Temp. Windchill Dew Point Humidity Pressure Visibility Wind Dir Wind Speed Gust Speed Precip Events Conditions
12:13 AM 45.5 °F 39.9 °F 41.7 °F 87% 29.86 in 4.0 mi NNW 11.5 mph 18.4 mph N/A   Overcast
12:33 AM 45.3 °F 39.7 °F 41.9 °F 88% 29.86 in 3.0 mi NNW 11.5 mph 17.3 mph N/A   Overcast
12:53 AM 45.1 °F 39.1 °F 41.9 °F 88% 29.86 in 4.0 mi NW 12.7 mph - N/A   Overcast
1:13 AM 45.1 °F 39.9 °F 41.7 °F 88% 29.87 in 4.0 mi NW 10.4 mph 19.6 mph N/A   Overcast
1:33 AM 45.1 °F 39.1 °F 41.5 °F 87% 29.88 in 7.0 mi NNW 12.7 mph 16.1 mph N/A   Overcast
1:53 AM 45.1 °F 38.8 °F 41.4 °F 87% 29.89 in 7.0 mi NNW 13.8 mph 17.3 mph N/A   Overcast
2:13 AM 45.1 °F 38.8 °F 41.2 °F 86% 29.90 in 7.0 mi NNW 13.8 mph 18.4 mph N/A   Overcast
2:33 AM 45.1 °F 39.1 °F 41.0 °F 85% 29.90 in 7.0 mi NNW 12.7 mph 18.4 mph N/A   Overcast
2:53 AM 45.1 °F 39.9 °F 41.0 °F 85% 29.90 in 10.0 mi NNW 10.4 mph - N/A   Overcast
3:13 AM 45.5 °F 40.8 °F 41.0 °F 84% 29.90 in 10.0 mi NNW 9.2 mph - N/A   Overcast
3:32 AM 45.5 °F 40.8 °F 41.0 °F 84% 29.90 in 10.0 mi NNW 9.2 mph 17.3 mph N/A   Overcast
3:53 AM 45.5 °F 40.8 °F 41.0 °F 84% 29.90 in 10.0 mi NNW 9.2 mph - N/A   Overcast
4:12 AM 45.5 °F 40.3 °F 41.0 °F 84% 29.91 in 10.0 mi NNW 10.4 mph - N/A   Overcast
4:33 AM 45.0 °F 39.7 °F 41.0 °F 86% 29.91 in 7.0 mi NNW 10.4 mph - N/A   Overcast
4:53 AM 45.0 °F 40.1 °F 41.0 °F 86% 29.91 in 5.0 mi NW 9.2 mph - N/A   Overcast
5:12 AM 44.8 °F 39.9 °F 40.6 °F 85% 29.91 in 10.0 mi NNW 9.2 mph - N/A   Overcast
5:33 AM 45.0 °F 40.6 °F 40.1 °F 83% 29.92 in 10.0 mi NNW 8.1 mph - N/A   Overcast
5:52 AM 45.0 °F 41.2 °F 40.5 °F 84% 29.92 in 10.0 mi NW 6.9 mph - N/A   Overcast
6:13 AM 45.0 °F 41.2 °F 40.3 °F 84% 29.92 in 10.0 mi NW 6.9 mph - N/A   Overcast
6:33 AM 44.8 °F 40.4 °F 40.1 °F 84% 29.92 in 10.0 mi NW 8.1 mph - N/A   Overcast
6:52 AM 44.8 °F 41.0 °F 39.7 °F 82% 29.93 in 10.0 mi WNW 6.9 mph - N/A   Overcast
7:13 AM 44.6 °F 40.2 °F 39.7 °F 83% 29.93 in 10.0 mi WNW 8.1 mph - N/A   Overcast
7:33 AM 44.6 °F 40.2 °F 39.6 °F 82% 29.94 in 10.0 mi WNW 8.1 mph - N/A   Overcast
7:52 AM 44.6 °F 39.2 °F 39.4 °F 82% 29.95 in 10.0 mi WNW 10.4 mph - N/A   Overcast
8:13 AM 44.4 °F 40.0 °F 39.2 °F 82% 29.95 in 10.0 mi WNW 8.1 mph - N/A   Overcast
8:33 AM 44.1 °F 40.8 °F 37.9 °F 79% 29.95 in 10.0 mi NNW 5.8 mph - N/A   Overcast
8:52 AM 44.4 °F 41.2 °F 37.9 °F 78% 29.95 in 10.0 mi NW 5.8 mph - N/A   Overcast
9:13 AM 44.2 °F 40.3 °F 38.3 °F 80% 29.96 in 10.0 mi WNW 6.9 mph - N/A   Overcast
9:33 AM 44.1 °F 39.5 °F 38.3 °F 80% 29.96 in 10.0 mi WNW 8.1 mph - N/A   Overcast
9:52 AM 44.1 °F 39.5 °F 38.3 °F 80% 29.96 in 10.0 mi WNW 8.1 mph - N/A   Overcast
10:13 AM 43.9 °F 39.3 °F 37.6 °F 78% 29.97 in 10.0 mi NW 8.1 mph - N/A   Mostly Cloudy
10:33 AM 46.0 °F 41.4 °F 38.8 °F 76% 29.97 in 10.0 mi NNW 9.2 mph - N/A   Mostly Cloudy
10:53 AM 46.8 °F - 37.4 °F 70% 29.96 in 10.0 mi NNW 5.8 mph - N/A   Scattered Clouds
11:13 AM 47.8 °F - 37.8 °F 68% 29.96 in 10.0 mi WNW 12.7 mph - N/A   Mostly Cloudy
11:32 AM 47.7 °F - 36.7 °F 66% 29.96 in 10.0 mi WNW 9.2 mph - N/A   Overcast
11:53 AM 48.6 °F - 36.9 °F 64% 29.96 in 10.0 mi NW 6.9 mph - N/A   Overcast
12:13 PM 48.9 °F - 36.5 °F 62% 29.96 in 10.0 mi WNW 8.1 mph - N/A   Overcast
12:32 PM 49.1 °F - 37.0 °F 63% 29.97 in 10.0 mi WNW 11.5 mph - N/A   Overcast
12:53 PM 49.1 °F - 36.7 °F 62% 29.96 in 10.0 mi West 8.1 mph - N/A   Mostly Cloudy
1:13 PM 50.0 °F - 37.8 °F 63% 29.95 in 10.0 mi WNW 9.2 mph - N/A   Mostly Cloudy
1:32 PM 50.5 °F - 37.4 °F 61% 29.94 in 10.0 mi West 10.4 mph - N/A   Scattered Clouds
1:53 PM 52.2 °F - 37.8 °F 58% 29.94 in 10.0 mi West 10.4 mph - N/A   Scattered Clouds
2:13 PM 52.0 °F - 37.9 °F 59% 29.93 in 10.0 mi WNW 10.4 mph - N/A   Scattered Clouds
2:32 PM 52.2 °F - 36.3 °F 55% 29.92 in 10.0 mi NW 10.4 mph - N/A   Clear
2:53 PM 52.7 °F - 36.0 °F 53% 29.92 in 10.0 mi WNW 10.4 mph - N/A   Clear
3:13 PM 53.4 °F - 36.0 °F 52% 29.92 in 10.0 mi West 10.4 mph - N/A   Clear
3:33 PM 53.8 °F - 35.2 °F 50% 29.91 in 10.0 mi WNW 10.4 mph 16.1 mph N/A   Clear
3:53 PM 54.0 °F - 34.7 °F 48% 29.91 in 10.0 mi WNW 8.1 mph - N/A   Clear
4:13 PM 54.0 °F - 32.9 °F 45% 29.91 in 10.0 mi West 9.2 mph - N/A   Clear
4:33 PM 54.1 °F - 33.6 °F 46% 29.90 in 10.0 mi West 8.1 mph - N/A   Clear
4:53 PM 54.1 °F - 30.7 °F 41% 29.90 in 10.0 mi West 9.2 mph - N/A   Clear
5:13 PM 53.8 °F - 30.2 °F 41% 29.90 in 10.0 mi West 4.6 mph - N/A   Clear
5:33 PM 53.2 °F - 30.0 °F 41% 29.90 in 10.0 mi West 6.9 mph - N/A   Clear
5:53 PM 52.5 °F - 31.1 °F 44% 29.90 in 10.0 mi West 3.5 mph - N/A   Clear
6:13 PM 51.8 °F - 31.3 °F 46% 29.90 in 10.0 mi Calm Calm - N/A   Clear
6:33 PM 50.2 °F - 32.4 °F 50% 29.90 in 10.0 mi Calm Calm - N/A   Clear
6:52 PM 48.2 °F - 34.2 °F 58% 29.90 in 10.0 mi Calm Calm - N/A   Clear
7:13 PM 46.4 °F - 34.7 °F 64% 29.90 in 10.0 mi Calm Calm - N/A   Clear
7:33 PM 44.8 °F - 34.3 °F 67% 29.90 in 10.0 mi Calm Calm - N/A   Clear
7:52 PM 43.3 °F - 34.0 °F 70% 29.90 in 10.0 mi Calm Calm - N/A   Clear
8:13 PM 42.3 °F - 34.0 °F 72% 29.90 in 10.0 mi Calm Calm - N/A   Clear
8:33 PM 41.0 °F - 33.8 °F 76% 29.90 in 10.0 mi Calm Calm - N/A   Clear
8:52 PM 40.6 °F - 34.0 °F 77% 29.90 in 10.0 mi Calm Calm - N/A   Clear
9:13 PM 40.5 °F - 34.0 °F 78% 29.90 in 10.0 mi Calm Calm - N/A   Clear
9:32 PM 39.7 °F - 33.4 °F 78% 29.89 in 10.0 mi Calm Calm - N/A   Clear
9:53 PM 40.5 °F - 33.8 °F 77% 29.89 in 10.0 mi Calm Calm - N/A   Clear
10:13 PM 39.6 °F 37.4 °F 32.9 °F 77% 29.89 in 10.0 mi SSW 3.5 mph - N/A   Clear
10:32 PM 41.0 °F 37.1 °F 33.4 °F 74% 29.89 in 10.0 mi SSW 5.8 mph - N/A   Clear
10:53 PM 41.2 °F 39.2 °F 32.9 °F 72% 29.89 in 10.0 mi SSW 3.5 mph - N/A   Clear
11:13 PM 40.6 °F 38.6 °F 32.9 °F 74% 29.89 in 10.0 mi SSW 3.5 mph - N/A   Clear
11:32 PM 40.1 °F 38.0 °F 32.5 °F 74% 29.88 in 10.0 mi SSW 3.5 mph - N/A   Clear
11:53 PM 38.8 °F 36.5 °F 32.2 °F 77% 29.87 in 10.0 mi SSW 3.5 mph - N/A   Clear